Hourly Data Report for June 06, 2012

All times are specified in Local Standard Time (LST). Add 1 hour to adjust for Daylight Saving Time where and when it is observed.

MONCTON INTL A
NEW BRUNSWICK

46°06'44.000" N
64°40'43.000" W
70.70 m
8103201
71705
YQM

Related Data

No related data is available for this station

Download Data

Hourly Data (June 2012)
Hourly Data Report for June 6, 2012
Temp Definition
°C
Dew Point Temp Definition
°C
Rel Hum Definition
%
Wind Dir Definition
10's deg

Wind Spd Definition
km/h
Visibility Definition
km
Stn Press Definition
kPa
Hmdx Definition


Wind Chill Definition


Weather Definition


TIME
00:00 Legend Double Dagger 7.3 6.7 96 35 22 10.0 100.23     Rain Showers
01:00 Legend Double Dagger 7.3 6.9 97 35 28 10.0 100.22     Rain Showers
02:00 Legend Double Dagger 7.2 6.8 97 34 21 10.0 100.18     Rain Showers
03:00
04:00 Legend Double Dagger 7.4 6.8 96 35 23 10.0 100.16     Rain
05:00 Legend Double Dagger 7.3 6.9 97 35 26 9.7 100.21     Rain,Fog
06:00 Legend Double Dagger 7.3 6.9 97 35 28 2.4 100.24     Rain,Fog
07:00 Legend Double Dagger 7.4 7.0 97 35 24 4.8 100.27     Rain,Fog
08:00 Legend Double Dagger 7.4 6.8 96 35 31 2.0 100.32     Rain,Fog
09:00 Legend Double Dagger 7.8 7.1 95 36 28 4.8 100.33     Rain,Fog
10:00 Legend Double Dagger 8.2 7.5 95 36 25 10.0 100.35     Rain
11:00 Legend Double Dagger 8.3 7.1 92 36 30 10.0 100.37     Rain
12:00 Legend Double Dagger 8.5 7.4 93 35 28 4.8 100.38     Rain,Fog
13:00 Legend Double Dagger 8.6 7.7 94 36 23 10.0 100.39     Rain
14:00 Legend Double Dagger 8.6 7.7 94 36 23 10.0 100.41     Rain
15:00 Legend Double Dagger 8.2 7.3 94 36 31 9.7 100.43     Rain,Fog
16:00 Legend Double Dagger 8.3 7.6 95 35 24 9.7 100.44     Rain,Fog
17:00 Legend Double Dagger 7.8 7.2 96 36 21 4.8 100.44     Rain,Fog
18:00 Legend Double Dagger 7.4 6.7 95 36 25 4.8 100.47     Rain,Fog
19:00 Legend Double Dagger 7.2 6.6 96 36 20 6.4 100.52     Drizzle,Fog
20:00 Legend Double Dagger 7.1 6.5 96 36 18 6.4 100.54     Drizzle,Fog
21:00 Legend Double Dagger 6.8 6.4 97 36 14 10.0 100.59     Drizzle
22:00 Legend Double Dagger 6.8 6.4 97 35 15 10.0 100.56     Drizzle
23:00 Legend Double Dagger 6.8 6.5 98 34 15 10.0 100.58     Drizzle

Notes on Data Quality.

Legend

  • E = Estimated
  • M = Missing
  • NA = Not Available
  • ‡ = Partner data that is not subject to review by the National Climate Archives
Date modified: